Weather History for Astoria, OR

Change the Weather History Date:

Wednesday, February 6, 2013

  Actual Average Record
Temperature  
Mean Temperature 46 °F 44 °F  
Max Temperature 50 °F 51 °F 65 °F (1954)
Min Temperature 42 °F 37 °F 20 °F (2014)
Degree Days  
Heating Degree Days 19 21  
Month to date heating degree days 110 126  
Since 1 July heating degree days 2920 2891  
Cooling Degree Days 0 0  
Month to date cooling degree days 0 0  
Year to date cooling degree days 0 0  
Moisture  
Dew Point 41 °F    
Average Humidity 78    
Maximum Humidity 89    
Minimum Humidity 66    
Precipitation  
Precipitation 0.40 in 0.27 in 2.37 in (1996)
Month to date precipitation 0.85 1.61  
Year to date precipitation 9.95 11.81  
Snow  
Snow 0.00 in - - ()
Month to date snowfall 0.0  
Snow Depth 0.00 in    
Sea Level Pressure  
Sea Level Pressure 29.96 in    
Wind  
Wind Speed 9 mph (South)    
Max Wind Speed 25 mph    
Max Gust Speed 35 mph    
Visibility 9 miles    
Events Rain    
T = Trace of Precipitation, MM = Missing Value Source: NWS Daily Summary

Daily Weather History Graph

Daily Weather History Graph

Search for Another Location

Airport:

Trip Planner

Search our weather history database for the weather conditions in past years. The results will help you decide how hot, cold, wet, or windy it might be!

Date:

Astronomy

Feb. 06, 2013 Rise Set
Actual Time 7:31 AM PST 5:28 PM PST
Civil Twilight 6:59 AM PST 6:00 PM PST
Nautical Twilight 6:24 AM PST 6:35 PM PST
Astronomical Twilight 5:49 AM PST 7:10 PM PST
Moon 4:27 AM PST (2/6) 1:46 PM PST (2/6)
Length of Visible Light 11h 00m
Length of Day
9h 57m
Waning Crescent, 16% of the Moon is Illuminated
Feb 6
Waning Crescent
Feb 9
New
Feb 17
First Quarter
Feb 25
Full
Mar 4
Last Quarter

Hourly Weather History & Observations

Time (PST) Temp. Windchill Dew Point Humidity Pressure Visibility Wind Dir Wind Speed Gust Speed Precip Events Conditions
12:17 AM 46.4 °F 41.5 °F 41.0 °F 81% 30.00 in 10.0 mi SW 10.4 mph 20.7 mph 0.00 in   Overcast
12:55 AM 46.0 °F 41.0 °F 42.1 °F 86% 30.01 in 10.0 mi SW 10.4 mph - 0.00 in   Overcast
1:55 AM 46.0 °F 40.2 °F 42.1 °F 86% 30.02 in 10.0 mi WSW 12.7 mph - 0.04 in   Mostly Cloudy
2:38 AM 46.4 °F 40.1 °F 41.0 °F 81% 30.03 in 10.0 mi SW 15.0 mph 27.6 mph 0.00 in Rain Light Rain
2:47 AM 44.6 °F 38.4 °F 41.0 °F 87% 30.03 in 10.0 mi SSW 12.7 mph 21.9 mph 0.00 in Rain Light Rain
2:55 AM 45.0 °F 40.1 °F 41.0 °F 86% 30.03 in 10.0 mi SSW 9.2 mph 18.4 mph 0.00 in Rain Light Rain
3:55 AM 45.0 °F 40.1 °F 41.0 °F 86% 30.03 in 10.0 mi WSW 9.2 mph - 0.00 in   Mostly Cloudy
4:02 AM 46.4 °F 42.4 °F 41.0 °F 81% 30.03 in 10.0 mi SW 8.1 mph - N/A   Mostly Cloudy
4:55 AM 45.0 °F 43.5 °F 41.0 °F 86% 30.03 in 10.0 mi SSW 3.5 mph - N/A   Mostly Cloudy
5:55 AM 46.0 °F 41.9 °F 39.9 °F 79% 30.03 in 10.0 mi SSW 8.1 mph - N/A   Scattered Clouds
6:23 AM 44.6 °F 41.4 °F 39.2 °F 81% 30.03 in 10.0 mi SSE 5.8 mph - N/A   Mostly Cloudy
6:35 AM 44.6 °F 42.2 °F 39.2 °F 81% 30.03 in 10.0 mi SSE 4.6 mph - N/A   Overcast
6:55 AM 44.1 °F 41.5 °F 39.9 °F 85% 30.03 in 10.0 mi SSE 4.6 mph - N/A   Mostly Cloudy
7:40 AM 44.6 °F 42.2 °F 41.0 °F 87% 30.04 in 4.0 mi SSE 4.6 mph - 0.02 in Rain Rain
7:55 AM 44.1 °F 40.8 °F 41.0 °F 89% 30.03 in 8.0 mi SE 5.8 mph - 0.03 in Rain Light Rain
8:20 AM 44.6 °F 40.7 °F 41.0 °F 87% 30.04 in 4.0 mi ESE 6.9 mph - 0.02 in Rain Light Rain
8:55 AM 44.1 °F 39.5 °F 41.0 °F 89% 30.04 in 7.0 mi SSE 8.1 mph - 0.03 in Rain Light Rain
9:27 AM 44.6 °F 43.1 °F 42.8 °F 93% 30.03 in 10.0 mi SE 3.5 mph - 0.01 in   Overcast
9:38 AM 46.4 °F - 42.8 °F 87% 30.03 in 10.0 mi Calm Calm - 0.01 in   Overcast
9:55 AM 46.0 °F 44.8 °F 43.0 °F 89% 30.03 in 10.0 mi Variable 3.5 mph - 0.01 in   Overcast
10:55 AM 48.9 °F - 42.1 °F 77% 30.01 in 10.0 mi SSE 9.2 mph - 0.00 in   Mostly Cloudy
11:05 AM 48.2 °F - 42.8 °F 82% 30.01 in 10.0 mi SSE 11.5 mph - N/A   Overcast
11:42 AM 50.0 °F - 42.8 °F 76% 29.99 in 10.0 mi SSE 10.4 mph - N/A   Overcast
11:55 AM 48.9 °F - 42.1 °F 77% 29.99 in 10.0 mi South 5.8 mph - N/A   Overcast
12:17 PM 48.2 °F - 39.2 °F 71% 29.98 in 10.0 mi South 16.1 mph 24.2 mph 0.00 in   Overcast
12:24 PM 48.2 °F - 41.0 °F 76% 29.98 in 10.0 mi South 10.4 mph 23.0 mph 0.00 in   Overcast
12:55 PM 50.0 °F - 42.1 °F 74% 29.97 in 10.0 mi South 10.4 mph 23.0 mph 0.00 in   Overcast
1:55 PM 50.0 °F - 39.0 °F 66% 29.94 in 10.0 mi South 12.7 mph 27.6 mph N/A   Overcast
2:55 PM 50.0 °F - 39.9 °F 68% 29.92 in 10.0 mi South 11.5 mph 21.9 mph 0.00 in   Mostly Cloudy
3:55 PM 48.9 °F - 41.0 °F 74% 29.91 in 10.0 mi South 13.8 mph 24.2 mph 0.00 in Rain Light Rain
4:55 PM 46.9 °F - 42.1 °F 83% 29.88 in 10.0 mi SE 5.8 mph - 0.01 in Rain Light Rain
5:55 PM 46.9 °F - 39.9 °F 77% 29.85 in 10.0 mi SE 6.9 mph - 0.00 in   Overcast
6:55 PM 48.0 °F - 39.9 °F 74% 29.82 in 10.0 mi SSE 9.2 mph - N/A   Overcast
7:55 PM 48.0 °F - 39.9 °F 74% 29.79 in 10.0 mi SSE 13.8 mph 19.6 mph 0.00 in Rain Light Rain
8:55 PM 46.0 °F 43.1 °F 41.0 °F 83% 29.78 in 8.0 mi SE 5.8 mph - 0.06 in Rain Light Rain
9:40 PM 44.6 °F 38.8 °F 39.2 °F 81% 29.81 in 5.0 mi SSW 11.5 mph 20.7 mph 0.08 in Rain Rain
9:55 PM 44.1 °F 38.1 °F 41.0 °F 89% 29.82 in 5.0 mi SSW 11.5 mph 23.0 mph 0.13 in Rain Rain
10:46 PM 42.8 °F 37.0 °F 37.4 °F 81% 29.82 in 10.0 mi SSE 10.4 mph 19.6 mph 0.08 in   Mostly Cloudy
10:55 PM 42.1 °F 35.7 °F 37.9 °F 85% 29.82 in 10.0 mi South 11.5 mph - 0.08 in   Mostly Cloudy
11:55 PM 45.0 °F 37.9 °F 39.9 °F 82% 29.85 in 10.0 mi SSW 16.1 mph 25.3 mph 0.01 in Rain Light Rain